Torna al catalogo

STARLINK-32386

AttivoComunicazioniVLEO
NORAD 61213·PAYLOAD·🇺🇸 United States

Lanciato Sep 20, 2024 da Vandenberg Space Force Base

Loading…

Prossimi Passaggi (prossime 24 ore)

TLE

AggiornatoSource: CelesTrak SupGP

Epoca: Sep 15, 2026, 03:09 UTC

1 61213C 24171P   26258.13173611  .00000331  00000+0  97706-5 0  2582
2 61213  53.1567 158.5187 0001236  90.4827 109.6061 15.34388360    14

Traccia STARLINK-32386 in tempo reale con AllMySat

Download on the App Store